KQ4NAL Weather Reports


Display with metric or nautical units.
time (UTC)temp
F
wind
direction
speed
MPH
gust
MPH
rain 1hr
in
rain 24hr
in
rain mn
in
humidity
%
barometer
mb
20260905131719 72 213 3.0 5.0 0.00 0.00 0.00 85 1017.4
20260905131214 72 313 1.0 1.0 0.00 0.00 0.00 87 1017.2
20260905130714 72 315 0.0 0.0 0.00 0.00 0.00 86 1017.7
20260905130208 71 342 2.0 2.0 0.00 0.00 0.00 86 1017.7
20260905125703 71 318 2.0 2.0 0.00 0.00 0.00 87 1017.2
20260905125158 71 233 4.0 5.0 0.00 0.00 0.00 87 1017.3
20260905124654 71 222 2.0 2.0 0.00 0.00 0.00 87 1017.6
20260905124150 71 237 2.0 2.0 0.00 0.00 0.00 86 1017.4
20260905123645 71 61 0.0 0.0 0.00 0.00 0.00 88 1017.2
20260905123142 72 322 0.0 0.0 0.00 0.00 0.00 88 1017.0
20260905122642 72 326 0.0 0.0 0.00 0.00 0.00 85 1017.2
20260905122137 71 350 0.0 0.0 0.00 0.00 0.00 85 1017.2
20260905121637 71 315 0.0 0.0 0.00 0.00 0.00 87 1017.0
20260905121133 71 48 2.0 3.0 0.00 0.00 0.00 86 1016.9
20260905120631 71 12 0.0 0.0 0.00 0.00 0.00 87 1016.7
20260905120126 71 348 0.0 0.0 0.00 0.00 0.00 87 1016.7
20260905115620 71 341 0.0 0.0 0.00 0.00 0.00 87 1016.6
20260905115115 70 353 2.0 2.0 0.00 0.00 0.00 87 1016.6
20260905114615 70 6 0.0 0.0 0.00 0.00 0.00 88 1016.5
20260905114113 70 345 2.0 2.0 0.00 0.00 0.00 89 1016.8
20260905113608 70 346 0.0 0.0 0.00 0.00 0.00 89 1016.9
20260905113103 70 356 2.0 2.0 0.00 0.00 0.00 89 1016.7
20260905112558 70 9 2.0 2.0 0.00 0.00 0.00 89 1016.6
20260905112054 70 333 4.0 6.0 0.00 0.00 0.00 88 1016.8
20260905111543 70 10 7.0 9.0 0.00 0.00 0.00 89 1017.1
20260905111042 70 358 2.0 2.0 0.00 0.00 0.00 89 1017.2
20260905110541 70 330 7.0 9.0 0.00 0.00 0.00 89 1017.2
20260905110036 70 20 3.0 5.0 0.00 0.00 0.00 88 1017.4
20260905105531 71 12 13.0 15.0 0.00 0.00 0.00 90 1017.4
20260905105029 71 358 11.0 13.0 0.00 0.00 0.00 92 1016.8
20260905104526 72 1 12.0 15.0 0.00 0.00 0.00 92 1016.7
20260905104020 72 352 11.0 15.0 0.00 0.00 0.00 95 1016.3
20260905103515 71 28 14.0 21.0 0.00 0.00 0.00 99 1015.6
20260905103012 71 243 7.0 10.0 0.00 0.00 0.00 99 1016.1
20260905102507 70 342 0.0 0.0 0.00 0.00 0.00 99 1014.5
20260905102003 70 345 0.0 0.0 0.00 0.00 0.00 99 1014.1
20260905101501 70 353 0.0 0.0 0.00 0.00 0.00 99 1014.1
20260905101000 70 342 0.0 0.0 0.00 0.00 0.00 99 1014.4
20260905100456 70 343 0.0 0.0 0.00 0.00 0.00 99 1014.4
20260905095955 70 343 0.0 0.0 0.00 0.00 0.00 99 1014.7
20260905095450 70 346 0.0 0.0 0.00 0.00 0.00 99 1014.5
20260905094946 70 346 0.0 0.0 0.00 0.00 0.00 99 1014.4
20260905094441 70 347 0.0 0.0 0.00 0.00 0.00 99 1014.6
20260905093939 70 344 0.0 0.0 0.00 0.00 0.00 99 1014.4
20260905093435 70 349 0.0 0.0 0.00 0.00 0.00 99 1014.7
20260905092931 70 346 0.0 0.0 0.00 0.00 0.00 99 1014.3
20260905092426 70 344 0.0 0.0 0.00 0.00 0.00 99 1014.1
20260905091920 70 343 0.0 0.0 0.00 0.00 0.00 99 1014.5
20260905091415 70 340 0.0 0.0 0.00 0.00 0.00 99 1014.2
20260905090914 70 346 0.0 0.0 0.00 0.00 0.00 99 1014.5
20260905090410 70 346 0.0 0.0 0.00 0.00 0.00 99 1014.4
20260905085909 71 346 0.0 0.0 0.00 0.00 0.00 99 1014.5
20260905085409 70 346 0.0 0.0 0.00 0.00 0.00 99 1014.3
20260905084905 70 345 0.0 0.0 0.00 0.00 0.00 99 1014.6
20260905084403 70 344 0.0 0.0 0.00 0.00 0.00 99 1014.3
20260905083859 70 343 0.0 0.0 0.00 0.00 0.00 99 1014.5
20260905083354 70 344 0.0 0.0 0.00 0.00 0.00 99 1014.4
20260905082850 70 343 0.0 0.0 0.00 0.00 0.00 99 1014.5
20260905082346 70 352 0.0 0.0 0.00 0.00 0.00 99 1014.6
20260905081841 70 345 0.0 0.0 0.00 0.00 0.00 99 1014.4
20260905081336 70 345 0.0 0.0 0.00 0.00 0.00 99 1014.3
20260905080835 70 346 0.0 0.0 0.00 0.00 0.00 99 1014.1
20260905080335 70 344 0.0 0.0 0.00 0.00 0.00 99 1014.3
20260905075833 70 343 0.0 0.0 0.00 0.00 0.00 99 1014.1
20260905075328 70 343 0.0 0.0 0.00 0.00 0.00 99 1014.3
20260905074827 70 345 0.0 0.0 0.00 0.00 0.00 99 1014.2
20260905074323 70 345 0.0 0.0 0.00 0.00 0.00 99 1014.3
20260905073818 70 345 0.0 0.0 0.00 0.00 0.00 99 1014.1
20260905073313 70 345 0.0 0.0 0.00 0.00 0.00 99 1014.1
20260905072808 70 342 0.0 0.0 0.00 0.00 0.00 99 1013.8
20260905072306 70 342 0.0 0.0 0.00 0.00 0.00 99 1014.0
20260905071800 70 341 0.0 0.0 0.00 0.00 0.00 99 1014.1
20260905071256 70 341 0.0 0.0 0.00 0.00 0.00 99 1013.8
20260905070750 70 341 0.0 0.0 0.00 0.00 0.00 99 1014.0
20260905070247 70 341 0.0 0.0 0.00 0.00 0.00 99 1014.0
20260905065745 70 344 0.0 0.0 0.00 0.00 0.00 99 1013.8
20260905065238 70 342 0.0 0.0 0.00 0.00 0.00 99 1014.2
20260905064733 70 342 0.0 0.0 0.00 0.00 0.00 99 1014.1
20260905064229 70 341 0.0 0.0 0.00 0.00 0.00 99 1014.3
20260905063728 70 341 0.0 0.0 0.00 0.00 0.00 99 1014.3
20260905063224 70 341 0.0 0.0 0.00 0.00 0.00 99 1014.2
20260905062720 70 341 0.0 0.0 0.00 0.00 0.00 99 1014.3
20260905062219 70 342 0.0 0.0 0.00 0.00 0.00 99 1014.5
20260905061713 71 342 0.0 0.0 0.00 0.00 0.00 99 1014.6
20260905061208 71 341 0.0 0.0 0.00 0.00 0.00 99 1014.6
20260905060703 71 342 0.0 0.0 0.00 0.00 0.00 99 1014.8
20260905060200 71 344 0.0 0.0 0.00 0.00 0.00 99 1014.6
20260905055658 71 344 0.0 0.0 0.00 0.00 0.00 99 1014.9
20260905055153 71 344 0.0 0.0 0.00 0.00 0.00 99 1015.1
20260905054649 71 344 0.0 0.0 0.00 0.00 0.00 99 1014.8
20260905054144 71 345 0.0 0.0 0.00 0.00 0.00 99 1015.0
20260905053638 71 348 0.0 0.0 0.00 0.00 0.00 99 1015.1
20260905053134 71 344 0.0 0.0 0.00 0.00 0.00 99 1015.3
20260905052632 71 340 0.0 0.0 0.00 0.00 0.00 99 1015.3
20260905052127 71 341 0.0 0.0 0.00 0.00 0.00 99 1015.4
20260905051623 71 342 0.0 0.0 0.00 0.00 0.00 99 1015.3
20260905051120 71 343 0.0 0.0 0.00 0.00 0.00 99 1015.5
20260905050615 71 343 0.0 0.0 0.00 0.00 0.00 99 1015.5
20260905050112 71 342 0.0 0.0 0.00 0.00 0.00 99 1015.6
20260905045607 71 342 0.0 0.0 0.00 0.00 0.00 99 1015.6
20260905045102 71 338 0.0 0.0 0.00 0.00 0.00 99 1015.7
20260905044601 71 341 0.0 0.0 0.00 0.00 0.00 99 1015.6
20260905044057 71 342 0.0 0.0 0.00 0.00 0.00 99 1015.6
20260905043555 71 342 0.0 0.0 0.00 0.00 0.00 99 1015.6
20260905043051 71 341 0.0 0.0 0.00 0.00 0.00 99 1015.6
20260905042549 71 341 0.0 0.0 0.00 0.00 0.00 98 1015.7
20260905042045 71 339 0.0 0.0 0.00 0.00 0.00 98 1015.6
20260905041540 71 341 0.0 0.0 0.00 0.00 0.00 98 1015.6
20260905041036 72 341 0.0 0.0 0.00 0.00 0.00 98 1015.7
20260905040536 71 341 0.0 0.0 0.00 0.00 0.00 98 1015.8
20260905040034 72 341 0.0 0.0 0.00 0.00 0.00 98 1015.8
20260905035529 72 341 0.0 0.0 0.00 0.00 0.00 98 1015.7
20260905035026 72 341 0.0 0.0 0.00 0.00 0.00 98 1015.8
20260905034521 72 341 0.0 0.0 0.00 0.00 0.00 97 1015.9
20260905034021 72 341 0.0 0.0 0.00 0.00 0.00 97 1015.5
20260905033515 72 341 0.0 0.0 0.00 0.00 0.00 97 1015.7
20260905033011 72 341 0.0 0.0 0.00 0.00 0.00 97 1015.5
20260905032505 72 341 0.0 0.0 0.00 0.00 0.00 97 1015.6
20260905032000 72 341 0.0 0.0 0.00 0.00 0.00 97 1015.6
20260905031456 72 341 0.0 0.0 0.00 0.00 0.00 97 1015.3
20260905030951 72 338 0.0 0.0 0.00 0.00 0.00 97 1015.2
20260905030446 72 346 0.0 0.0 0.00 0.00 0.00 97 1015.3
20260905025945 72 345 0.0 0.0 0.00 0.00 0.00 96 1015.5
20260905025440 72 345 0.0 0.0 0.00 0.00 0.00 96 1015.5
20260905024938 73 345 0.0 0.0 0.00 0.00 0.00 96 1015.4
20260905024437 73 346 0.0 0.0 0.00 0.00 0.00 96 1015.5
20260905023932 72 341 0.0 0.0 0.00 0.00 0.00 96 1015.5
20260905023428 73 341 0.0 0.0 0.00 0.00 0.00 96 1015.3
20260905022927 73 341 0.0 0.0 0.00 0.00 0.00 96 1015.2
20260905022422 73 344 0.0 0.0 0.00 0.00 0.00 96 1015.4
20260905021917 73 344 0.0 0.0 0.00 0.00 0.00 95 1015.5
20260905021412 73 344 0.0 0.0 0.00 0.00 0.00 95 1015.6
20260905020907 73 344 0.0 0.0 0.00 0.00 0.00 95 1015.5
20260905020406 73 344 0.0 0.0 0.00 0.00 0.00 95 1015.4
20260905015906 73 344 0.0 0.0 0.00 0.00 0.00 94 1015.4
20260905015404 73 346 0.0 0.0 0.00 0.00 0.00 94 1015.5
20260905014859 73 347 0.0 0.0 0.00 0.00 0.00 95 1015.5
20260905014354 73 344 0.0 0.0 0.00 0.00 0.00 95 1015.4
20260905013849 74 336 0.0 0.0 0.00 0.00 0.00 94 1015.4
20260905013346 74 345 0.0 0.0 0.00 0.00 0.00 93 1015.2
20260905012846 74 345 0.0 0.0 0.00 0.00 0.00 93 1015.4
20260905012341 74 343 0.0 0.0 0.00 0.00 0.00 93 1015.1
20260905011838 74 343 0.0 0.0 0.00 0.00 0.00 93 1015.1
20260905011333 74 340 0.0 0.0 0.00 0.00 0.00 92 1015.1
20260905010829 75 340 0.0 0.0 0.00 0.00 0.00 92 1015.1
20260905010323 75 338 0.0 0.0 0.00 0.00 0.00 91 1015.2
20260905005820 75 344 0.0 0.0 0.00 0.00 0.00 91 1015.3
20260905005316 75 345 0.0 0.0 0.00 0.00 0.00 90 1015.0
20260905004816 75 344 0.0 0.0 0.00 0.00 0.00 90 1015.1
20260905004310 76 345 0.0 0.0 0.00 0.00 0.00 89 1015.2
20260905003806 76 343 0.0 0.0 0.00 0.00 0.00 87 1015.1
20260905003302 76 345 0.0 0.0 0.00 0.00 0.00 86 1015.0
20260905002757 77 346 0.0 0.0 0.00 0.00 0.00 85 1015.0
20260905002257 77 346 0.0 0.0 0.00 0.00 0.00 85 1014.9
20260905001752 77 348 0.0 0.0 0.00 0.00 0.00 84 1014.9
20260905001251 78 347 0.0 0.0 0.00 0.00 0.00 83 1014.9
20260905000747 78 346 0.0 0.0 0.00 0.00 0.00 83 1015.0
20260905000243 79 345 0.0 0.0 0.00 0.00 0.00 83 1015.0
20260904235737 79 336 0.0 0.0 0.00 0.00 0.00 81 1015.0
20260904235232 80 342 0.0 0.0 0.00 0.00 0.00 78 1015.1
20260904234726 80 337 0.0 0.0 0.00 0.00 0.00 77 1014.9
20260904234222 81 344 0.0 0.0 0.00 0.00 0.00 75 1014.7
20260904233718 81 339 1.0 1.0 0.00 0.00 0.00 75 1014.9
20260904233214 82 343 0.0 1.0 0.00 0.00 0.00 75 1014.8
20260904232710 82 0 1.0 2.0 0.00 0.00 0.00 74 1014.5
20260904232206 83 329 0.0 0.0 0.00 0.00 0.00 73 1014.7
20260904231701 83 348 0.0 0.0 0.00 0.00 0.00 72 1014.6
20260904231157 84 0 1.0 2.0 0.00 0.00 0.00 72 1014.6
20260904230656 84 346 1.0 1.0 0.00 0.00 0.00 70 1014.6
20260904230151 85 18 0.0 0.0 0.00 0.00 0.00 70 1014.6
20260904225649 86 341 0.0 0.0 0.00 0.00 0.00 66 1014.6
20260904225144 84 2 0.0 0.0 0.00 0.00 0.00 70 1014.4
20260904224639 85 358 1.0 2.0 0.00 0.00 0.00 68 1014.6
20260904224133 85 356 0.0 0.0 0.00 0.00 0.00 68 1014.5
20260904223633 86 342 0.0 1.0 0.00 0.00 0.00 66 1014.6
20260904223128 86 326 0.0 0.0 0.00 0.00 0.00 65 1014.9
20260904222624 85 351 1.0 1.0 0.00 0.00 0.00 67 1014.7
20260904222120 86 296 2.0 2.0 0.00 0.00 0.00 65 1014.9
20260904221619 84 340 0.0 0.0 0.00 0.00 0.00 65 1015.1
20260904221119 83 359 3.0 3.0 0.00 0.00 0.00 69 1015.2
20260904220614 83 333 4.0 6.0 0.00 0.00 0.00 69 1015.7
20260904220109 82 7 7.0 9.0 0.00 0.00 0.00 70 1016.5
20260904215603 82 328 6.0 8.0 0.00 0.00 0.00 72 1016.7
20260904215059 85 35 7.0 8.0 0.00 0.00 0.00 67 1016.8
20260904214554 86 340 9.0 11.0 0.00 0.00 0.00 66 1017.2
20260904214050 87 355 9.0 10.0 0.00 0.00 0.00 63 1016.8
20260904213548 89 11 12.0 13.0 0.00 0.00 0.00 61 1016.0
20260904213045 95 19 11.0 14.0 0.00 0.00 0.00 56 1015.6
20260904212544 95 358 4.0 5.0 0.00 0.00 0.00 53 1015.5
20260904212039 95 3 3.0 5.0 0.00 0.00 0.00 51 1015.2
20260904211534 96 23 3.0 3.0 0.00 0.00 0.00 50 1015.0
20260904211030 97 339 4.0 6.0 0.00 0.00 0.00 49 1014.9
20260904210529 96 340 5.0 6.0 0.00 0.00 0.00 50 1014.8
20260904210025 97 6 2.0 2.0 0.00 0.00 0.00 50 1015.0
20260904205520 97 343 5.0 9.0 0.00 0.00 0.00 50 1015.0
20260904205017 96 326 1.0 1.0 0.00 0.00 0.00 51 1015.0
20260904204512 96 351 2.0 2.0 0.00 0.00 0.00 52 1015.0
20260904204008 96 340 0.0 0.0 0.00 0.00 0.00 53 1014.9
20260904203504 96 349 0.0 0.0 0.00 0.00 0.00 52 1014.9
20260904203000 97 329 2.0 5.0 0.00 0.00 0.00 51 1015.2
20260904202456 97 343 4.0 5.0 0.00 0.00 0.00 49 1015.0
20260904201951 97 359 4.0 5.0 0.00 0.00 0.00 50 1015.3
20260904201446 97 327 0.0 0.0 0.00 0.00 0.00 50 1015.3
20260904200942 97 336 4.0 6.0 0.00 0.00 0.00 49 1015.2
20260904200440 98 2 7.0 9.0 0.00 0.00 0.00 49 1015.2
20260904195935 99 345 2.0 5.0 0.00 0.00 0.00 48 1015.3
20260904195433 98 307 0.0 1.0 0.00 0.00 0.00 47 1015.5
20260904194927 97 328 2.0 3.0 0.00 0.00 0.00 51 1015.3
20260904194427 98 345 9.0 11.0 0.00 0.00 0.00 49 1015.3
20260904193922 98 338 3.0 3.0 0.00 0.00 0.00 49 1015.4
20260904193418 98 333 5.0 7.0 0.00 0.00 0.00 50 1015.4
20260904192913 97 332 3.0 6.0 0.00 0.00 0.00 49 1015.2
20260904192408 96 345 0.0 0.0 0.00 0.00 0.00 51 1015.7
20260904191904 97 24 5.0 7.0 0.00 0.00 0.00 51 1015.5
20260904191401 98 18 2.0 3.0 0.00 0.00 0.00 51 1015.7
20260904190857 96 5 1.0 1.0 0.00 0.00 0.00 51 1015.9
20260904190352 98 335 5.0 5.0 0.00 0.00 0.00 50 1015.9
20260904185849 98 290 2.0 3.0 0.00 0.00 0.00 49 1015.9
20260904185344 98 324 2.0 3.0 0.00 0.00 0.00 49 1016.1
20260904184844 98 262 4.0 5.0 0.00 0.00 0.00 47 1015.8
20260904184339 97 342 2.0 2.0 0.00 0.00 0.00 50 1016.1
20260904183834 97 325 2.0 3.0 0.00 0.00 0.00 52 1016.0
20260904183329 98 0 0.0 1.0 0.00 0.00 0.00 52 1016.1
20260904182825 96 13 3.0 3.0 0.00 0.00 0.00 51 1016.2
20260904182325 98 339 6.0 8.0 0.00 0.00 0.00 50 1016.2
20260904181820 96 313 6.0 7.0 0.00 0.00 0.00 52 1016.2
20260904181320 96 6 11.0 11.0 0.00 0.00 0.00 51 1016.4
20260904180816 95 9 4.0 5.0 0.00 0.00 0.00 55 1016.3
20260904180311 96 16 8.0 9.0 0.00 0.00 0.00 53 1016.5
20260904175810 96 15 9.0 13.0 0.00 0.00 0.00 51 1016.8
20260904175309 96 320 2.0 5.0 0.00 0.00 0.00 52 1016.8
20260904174809 97 338 7.0 8.0 0.00 0.00 0.00 52 1016.9
20260904174305 97 347 3.0 3.0 0.00 0.00 0.00 52 1017.1
20260904173800 96 337 3.0 5.0 0.00 0.00 0.00 53 1016.9
20260904173255 95 6 3.0 5.0 0.00 0.00 0.00 54 1017.2
20260904172752 96 334 5.0 7.0 0.00 0.00 0.00 54 1017.1
20260904172250 96 343 5.0 7.0 0.00 0.00 0.00 55 1017.1
20260904171746 95 357 3.0 5.0 0.00 0.00 0.00 54 1017.2
20260904171241 95 359 2.0 2.0 0.00 0.00 0.00 54 1017.3
20260904170737 95 342 6.0 7.0 0.00 0.00 0.00 55 1017.0
20260904170233 94 340 1.0 2.0 0.00 0.00 0.00 56 1017.1
20260904165732 93 331 0.0 1.0 0.00 0.00 0.00 57 1017.4
20260904165226 94 323 4.0 6.0 0.00 0.00 0.00 56 1017.4
20260904164720 96 347 2.0 2.0 0.00 0.00 0.00 53 1017.3
20260904164215 96 347 2.0 3.0 0.00 0.00 0.00 55 1017.3
20260904163712 96 328 2.0 2.0 0.00 0.00 0.00 53 1017.3
20260904163207 97 341 1.0 2.0 0.00 0.00 0.00 53 1017.3
20260904162706 97 0 0.0 1.0 0.00 0.00 0.00 52 1017.2
20260904162201 95 1 2.0 3.0 0.00 0.00 0.00 54 1017.3
20260904161656 95 297 5.0 6.0 0.00 0.00 0.00 54 1017.6
20260904161151 95 333 3.0 6.0 0.00 0.00 0.00 55 1017.2
20260904160647 96 346 3.0 5.0 0.00 0.00 0.00 54 1017.3
20260904160142 96 298 0.0 1.0 0.00 0.00 0.00 55 1017.4
20260904155637 96 343 0.0 0.0 0.00 0.00 0.00 55 1017.4
20260904155131 95 349 0.0 0.0 0.00 0.00 0.00 57 1017.4
20260904154630 94 309 7.0 9.0 0.00 0.00 0.00 57 1017.4
20260904154125 95 347 1.0 2.0 0.00 0.00 0.00 57 1017.4
20260904153620 94 353 3.0 3.0 0.00 0.00 0.00 58 1017.4
20260904153116 94 341 5.0 7.0 0.00 0.00 0.00 58 1017.3
20260904152612 94 12 3.0 5.0 0.00 0.00 0.00 58 1017.4
20260904152107 92 335 2.0 2.0 0.00 0.00 0.00 63 1017.2
20260904151602 93 357 3.0 5.0 0.00 0.00 0.00 61 1017.6
20260904151101 92 308 0.0 0.0 0.00 0.00 0.00 63 1017.6
20260904150556 94 12 6.0 6.0 0.00 0.00 0.00 62 1017.6
20260904150055 94 314 0.0 0.0 0.00 0.00 0.00 61 1017.4
20260904145555 95 345 0.0 0.0 0.00 0.00 0.00 60 1017.4
20260904145050 93 326 1.0 2.0 0.00 0.00 0.00 61 1017.2
20260904144546 93 310 0.0 0.0 0.00 0.00 0.00 63 1017.2
20260904144042 92 325 0.0 1.0 0.00 0.00 0.00 65 1017.3
20260904143537 92 343 0.0 0.0 0.00 0.00 0.00 67 1017.3
20260904143034 90 342 0.0 0.0 0.00 0.00 0.00 68 1017.3
20260904142530 90 326 0.0 1.0 0.00 0.00 0.00 68 1017.3
20260904142025 91 271 2.0 3.0 0.00 0.00 0.00 68 1017.3
20260904141520 91 341 0.0 0.0 0.00 0.00 0.00 71 1017.4
20260904141016 89 344 1.0 2.0 0.00 0.00 0.00 70 1017.2
20260904140511 87 328 1.0 2.0 0.00 0.00 0.00 74 1017.3
20260904140010 87 296 2.0 2.0 0.00 0.00 0.00 75 1017.1
20260904135504 86 339 0.0 0.0 0.00 0.00 0.00 77 1017.3
20260904135001 86 24 0.0 1.0 0.00 0.00 0.00 78 1017.4
20260904134501 86 337 0.0 0.0 0.00 0.00 0.00 81 1017.4
20260904133954 85 357 0.0 0.0 0.00 0.00 0.00 79 1017.7
20260904133449 85 332 0.0 0.0 0.00 0.00 0.00 81 1017.6
20260904132945 84 346 0.0 0.0 0.00 0.00 0.00 80 1017.2
20260904132440 84 354 0.0 0.0 0.00 0.00 0.00 80 1017.7